This is the latest recevied weather packets stored in our database for station/object JH5HTX-13. If no packets are shown the sender has not sent any weather packets the latest 10 day(s).
| Time | Temp. | Humidity | Pressure | Rain* | Wind** | Luminosity | Snow |
|---|---|---|---|---|---|---|---|
| 1777680872 | 19.44° C | 71% | 1012.2 hPa | 0 mm | - | - | - |
| 1777679972 | 18.89° C | 70% | 1012.3 hPa | 0 mm | - | - | - |
| 1777679072 | 18.89° C | 70% | 1012.2 hPa | 0 mm | - | - | - |
| 1777678171 | 18.33° C | 69% | 1012.1 hPa | 0 mm | - | - | - |
| 1777677271 | 18.33° C | 71% | 1012 hPa | 0 mm | - | - | - |
| 1777676371 | 17.78° C | 71% | 1012.1 hPa | 0 mm | - | - | - |
| 1777675471 | 17.78° C | 71% | 1011.9 hPa | 0 mm | - | - | - |
| 1777674572 | 17.78° C | 73% | 1011.9 hPa | 0 mm | - | - | - |
| 1777673671 | 16.67° C | 73% | 1011.6 hPa | 0 mm | - | - | - |
| 1777672771 | 16.11° C | 76% | 1011.4 hPa | 0 mm | - | - | - |
| 1777671871 | 15.56° C | 77% | 1011.2 hPa | 0 mm | - | - | - |
| 1777670971 | 15.56° C | 77% | 1011.1 hPa | 0 mm | - | - | - |
| 1777670070 | 15.56° C | 75% | 1011.1 hPa | 0 mm | - | - | - |
| 1777669170 | 15.56° C | 76% | 1010.9 hPa | 0 mm | - | - | - |
| 1777668270 | 14.44° C | 78% | 1010.7 hPa | 0 mm | - | - | - |
| 1777667370 | 14.44° C | 78% | 1010.6 hPa | 0 mm | - | - | - |
| 1777666470 | 14.44° C | 78% | 1010.3 hPa | 0 mm | - | - | - |
| 1777665570 | 14.44° C | 77% | 1010.1 hPa | 0 mm | - | - | - |
| 1777664670 | 14.44° C | 76% | 1009.9 hPa | 0 mm | - | - | - |
| 1777663770 | 14.44° C | 75% | 1009.9 hPa | 0 mm | - | - | - |
| 1777662870 | 15° C | 74% | 1009.8 hPa | 0 mm | - | - | - |
| 1777661970 | 15° C | 74% | 1009.9 hPa | 0 mm | - | - | - |
| 1777661069 | 15° C | 74% | 1010 hPa | 0 mm | - | - | - |
| 1777660169 | 15° C | 73% | 1010 hPa | 0 mm | - | - | - |
| 1777659269 | 15.56° C | 71% | 1009.9 hPa | 0 mm | - | - | - |
* Rain latest hour (hover to see other rain measurements)
** Current wind speed in m/s (hover to see current wind gust speed)